SCP
0 0 0 0 0 0 0 0 0 0 0 0 0 0 0 0 0 0 0 0 1 0
0 0 0 0 0 0 0 0 0 0 0 0 0 0 0 0 0 0 0 0 1 1
0 0 0 0 0 0 0 0 0 0 0 0 0 0 0 0 0 0 0 0 1 1
0 0 0 0 0 0 0 0 0 0 0 0 0 0 0 0 0 0 0 0 0 0
0 0 0 0 0 0 0 0 0 0 0 0 0 0 0 0 0 0 0 0 0 0
0 0 0 0 0 0 0 0 0 0 0 0 0 0 0 0 0 0 0 0 0 0
0 0 0 0 0 0 0 0 0 0 0 0 0 0 0 0 0 0 0 0 0 0
0 0 0 0 0 0 0 0 0 0 0 0 0 0 0 0 0 0 0 0 0 0
0 0 0 0 0 0 0 0 0 0 0 0 0 0 0 0 0 0 0 0 0 0
0 0 0 0 0 0 0 0 0 0 0 0 0 0 0 0 0 0 0 0 0 0
0 0 0 0 0 0 0 0 0 0 0 0 0 0 0 0 0 0 0 0 0 0
0 0 0 0 0 0 0 0 0 0 0 0 0 0 0 0 0 0 0 0 0 0
0 0 0 0 0 0 0 0 0 0 0 0 0 0 0 0 0 0 0 0 0 0
0 0 0 0 0 0 0 0 0 0 0 0 0 0 0 0 0 0 0 0 0 0
Wind_Speed_500mb
33 37 40 45 51 58 65 71 76 77 80 82 83 83 85 87 86 82 77 73 68 61
35 41 47 52 59 67 74 80 85 88 91 91 89 87 85 87 92 92 88 84 79 71
45 54 61 69 76 82 87 89 90 89 88 88 88 91 91 91 87 93 93 84 79 77
59 67 72 77 81 83 82 78 74 68 69 71 71 70 71 77 84 85 85 77 74 72
70 74 77 78 77 74 70 64 61 62 66 68 67 67 67 70 72 75 76 72 72 72
73 74 74 73 69 64 59 56 56 55 54 51 49 51 58 60 60 63 68 72 70 71
72 70 65 64 60 55 51 48 45 47 52 50 50 51 52 53 55 53 56 64 69 68
62 58 58 54 52 44 38 42 49 58 58 54 53 52 50 53 56 60 64 64 59 66
51 52 52 51 46 39 47 55 60 61 57 56 58 59 65 61 58 57 57 61 67 73
49 51 49 42 40 46 53 59 61 57 61 71 72 65 63 63 64 59 65 61 56 61
48 50 40 42 48 54 57 54 61 65 75 72 72 70 71 63 63 57 56 59 56 56
48 43 42 48 54 58 59 64 64 61 76 73 76 71 67 64 57 51 49 50 49 47
45 42 45 49 58 68 62 71 69 71 64 68 63 53 51 51 49 49 37 34 44 36
41 42 43 51 63 68 64 72 62 71 64 59 53 52 51 46 39 35 36 37 34 38
Wind_Direction_500mb
256 265 272 275 280 282 284 284 283 281 278 274 271 268 265 263 263 263 263 264 267 274
274 277 280 283 284 283 283 282 281 279 278 275 273 270 267 264 262 262 262 262 263 263
287 289 289 289 289 289 288 287 286 284 283 280 276 271 268 264 264 263 261 260 260 259
293 295 296 296 296 295 292 292 291 291 291 291 289 285 278 270 264 261 261 258 257 257
303 303 302 301 299 297 295 291 291 294 294 294 291 288 283 279 272 264 258 257 255 256
306 305 304 304 302 298 293 291 294 296 297 295 293 293 291 282 277 271 262 256 256 255
307 306 305 304 302 297 291 293 297 296 294 289 287 289 290 284 280 276 272 262 257 258
305 304 303 304 304 298 295 297 297 298 298 292 287 288 286 294 289 283 277 263 256 261
306 304 305 306 302 301 305 303 301 301 296 291 289 285 292 293 294 287 281 279 270 256
309 309 307 305 307 306 305 310 306 300 299 299 300 295 295 291 295 290 278 275 276 263
309 306 308 309 307 310 311 304 307 306 310 304 303 302 300 292 291 288 282 272 268 259
308 305 306 307 315 313 311 311 311 309 311 307 304 295 293 287 288 287 280 270 250 255
304 301 306 316 322 318 313 318 319 318 311 311 308 305 297 288 285 283 272 245 241 252
302 303 317 326 317 316 313 316 318 321 314 317 313 307 301 293 281 255 252 243 243 260
Wind_Speed_850mb
33 37 40 45 51 58 65 71 76 77 80 82 83 83 85 87 86 82 77 73 68 61
35 41 47 52 59 67 74 80 85 88 91 91 89 87 85 87 92 92 88 84 79 71
45 54 61 69 76 82 87 89 90 89 88 88 88 91 91 91 87 93 93 84 79 77
59 67 72 77 81 83 82 78 74 68 69 71 71 70 71 77 84 85 85 77 74 72
70 74 77 78 77 74 70 64 61 62 66 68 67 67 67 70 72 75 76 72 72 72
73 74 74 73 69 64 59 56 56 55 54 51 49 51 58 60 60 63 68 72 70 71
72 70 65 64 60 55 51 48 45 47 52 50 50 51 52 53 55 53 56 64 69 68
62 58 58 54 52 44 38 42 49 58 58 54 53 52 50 53 56 60 64 64 59 66
51 52 52 51 46 39 47 55 60 61 57 56 58 59 65 61 58 57 57 61 67 73
49 51 49 42 40 46 53 59 61 57 61 71 72 65 63 63 64 59 65 61 56 61
48 50 40 42 48 54 57 54 61 65 75 72 72 70 71 63 63 57 56 59 56 56
48 43 42 48 54 58 59 64 64 61 76 73 76 71 67 64 57 51 49 50 49 47
45 42 45 49 58 68 62 71 69 71 64 68 63 53 51 51 49 49 37 34 44 36
41 42 43 51 63 68 64 72 62 71 64 59 53 52 51 46 39 35 36 37 34 38
Wind_Direction_850mb
256 265 272 275 280 282 284 284 283 281 278 274 271 268 265 263 263 263 263 264 267 274
274 277 280 283 284 283 283 282 281 279 278 275 273 270 267 264 262 262 262 262 263 263
287 289 289 289 289 289 288 287 286 284 283 280 276 271 268 264 264 263 261 260 260 259
293 295 296 296 296 295 292 292 291 291 291 291 289 285 278 270 264 261 261 258 257 257
303 303 302 301 299 297 295 291 291 294 294 294 291 288 283 279 272 264 258 257 255 256
306 305 304 304 302 298 293 291 294 296 297 295 293 293 291 282 277 271 262 256 256 255
307 306 305 304 302 297 291 293 297 296 294 289 287 289 290 284 280 276 272 262 257 258
305 304 303 304 304 298 295 297 297 298 298 292 287 288 286 294 289 283 277 263 256 261
306 304 305 306 302 301 305 303 301 301 296 291 289 285 292 293 294 287 281 279 270 256
309 309 307 305 307 306 305 310 306 300 299 299 300 295 295 291 295 290 278 275 276 263
309 306 308 309 307 310 311 304 307 306 310 304 303 302 300 292 291 288 282 272 268 259
308 305 306 307 315 313 311 311 311 309 311 307 304 295 293 287 288 287 280 270 250 255
304 301 306 316 322 318 313 318 319 318 311 311 308 305 297 288 285 283 272 245 241 252
302 303 317 326 317 316 313 316 318 321 314 317 313 307 301 293 281 255 252 243 243 260